owner,sensor,date,latitude,longitude,vertical_datum,direction_of_sea_water_velocity,sea_water_speed,upward_sea_water_velocity,qcFlag 
TABS,ioos:station:wmo:42046:1,2013-07-01T00:00:00Z,27.8903,-94.0367,2.0,356.1861445,4.209322986,-99999.0,'11133222,11111222,99999999' 
TABS,ioos:station:wmo:42046:1,2013-07-01T00:30:00Z,27.8903,-94.0367,2.0,288.5100276,2.425469027,-99999.0,'11133222,11111222,99999999' 
TABS,ioos:station:wmo:42046:1,2013-07-01T01:00:00Z,27.8903,-94.0367,2.0,290.5053524,5.252808772,-99999.0,'11133222,11111222,99999999' 
TABS,ioos:station:wmo:42046:1,2013-07-01T01:30:00Z,27.8903,-94.0367,2.0,286.3069934,7.40800243,-99999.0,'11133222,11111222,99999999' 
TABS,ioos:station:wmo:42046:1,2013-07-01T02:00:00Z,27.8903,-94.0367,2.0,292.8452225,14.88780709,-99999.0,'11111222,11111222,99999999' 
TABS,ioos:station:wmo:42046:1,2013-07-01T02:30:00Z,27.8903,-94.0367,2.0,293.0812308,24.28386295,-99999.0,'11111222,11111222,99999999' 
TABS,ioos:station:wmo:42046:1,2013-07-01T03:00:00Z,27.8903,-94.0367,2.0,300.4453072,28.22124909,-99999.0,'11111222,11111222,99999999' 
TABS,ioos:station:wmo:42046:1,2013-07-01T03:30:00Z,27.8903,-94.0367,2.0,303.1962895,40.20061815,-99999.0,'11111222,11111222,99999999' 
TABS,ioos:station:wmo:42046:1,2013-07-01T04:00:00Z,27.8903,-94.0367,2.0,298.7748944,67.16327717,-99999.0,'11111222,11111222,99999999' 
TABS,ioos:station:wmo:42046:1,2013-07-01T04:30:00Z,27.8903,-94.0367,2.0,298.1328467,69.64827349,-99999.0,'11111222,11111222,99999999' 
TABS,ioos:station:wmo:42046:1,2013-07-01T05:00:00Z,27.8903,-94.0367,2.0,305.3038819,71.11857423,-99999.0,'11111222,11111222,99999999' 
TABS,ioos:station:wmo:42046:1,2013-07-01T05:30:00Z,27.8903,-94.0367,2.0,310.5397945,72.37238147,-99999.0,'11111222,11111222,99999999' 
TABS,ioos:station:wmo:42046:1,2013-07-01T06:00:00Z,27.8903,-94.0367,2.0,313.519082,63.46282691,-99999.0,'11111222,11111222,99999999' 
TABS,ioos:station:wmo:42046:1,2013-07-01T06:30:00Z,27.8903,-94.0367,2.0,316.9107623,62.35905387,-99999.0,'11111222,11111222,99999999' 
TABS,ioos:station:wmo:42046:1,2013-07-01T07:00:00Z,27.8903,-94.0367,2.0,320.7499645,65.00609587,-99999.0,'11111222,11111222,99999999' 
TABS,ioos:station:wmo:42046:1,2013-07-01T07:30:00Z,27.8903,-94.0367,2.0,319.7077393,68.2397201,-99999.0,'11111222,11111222,99999999' 
TABS,ioos:station:wmo:42046:1,2013-07-01T08:00:00Z,27.8903,-94.0367,2.0,322.0548025,64.13930152,-99999.0,'11111222,11111222,99999999' 
TABS,ioos:station:wmo:42046:1,2013-07-01T08:30:00Z,27.8903,-94.0367,2.0,327.0304507,60.0149823,-99999.0,'11111222,11111222,99999999' 
TABS,ioos:station:wmo:42046:1,2013-07-01T09:00:00Z,27.8903,-94.0367,2.0,334.5551857,64.75101003,-99999.0,'11111222,11111222,99999999' 
TABS,ioos:station:wmo:42046:1,2013-07-01T09:30:00Z,27.8903,-94.0367,2.0,339.4821065,61.93935905,-99999.0,'11111222,11111222,99999999' 
TABS,ioos:station:wmo:42046:1,2013-07-01T10:00:00Z,27.8903,-94.0367,2.0,344.2755015,63.13275695,-99999.0,'11111222,11111222,99999999' 
TABS,ioos:station:wmo:42046:1,2013-07-01T10:30:00Z,27.8903,-94.0367,2.0,351.0893765,62.68659346,-99999.0,'11111222,11111222,99999999' 
TABS,ioos:station:wmo:42046:1,2013-07-01T11:00:00Z,27.8903,-94.0367,2.0,0.063014931,63.86003837,-99999.0,'11111222,11111222,99999999' 
TABS,ioos:station:wmo:42046:1,2013-07-01T11:30:00Z,27.8903,-94.0367,2.0,2.056653913,62.98056208,-99999.0,'11111222,11111222,99999999' 
TABS,ioos:station:wmo:42046:1,2013-07-01T12:00:00Z,27.8903,-94.0367,2.0,11.43340949,69.26445697,-99999.0,'11111222,11111222,99999999' 
TABS,ioos:station:wmo:42046:1,2013-07-01T12:30:00Z,27.8903,-94.0367,2.0,16.59736983,69.91280927,-99999.0,'11111222,11111222,99999999' 
TABS,ioos:station:wmo:42046:1,2013-07-01T13:00:00Z,27.8903,-94.0367,2.0,22.82326613,68.52504652,-99999.0,'11111222,11111222,99999999' 
TABS,ioos:station:wmo:42046:1,2013-07-01T13:30:00Z,27.8903,-94.0367,2.0,28.77933536,69.1058449,-99999.0,'11111222,11111222,99999999' 
TABS,ioos:station:wmo:42046:1,2013-07-01T14:00:00Z,27.8903,-94.0367,2.0,30.51607833,68.02184649,-99999.0,'11111222,11111222,99999999' 
TABS,ioos:station:wmo:42046:1,2013-07-01T14:30:00Z,27.8903,-94.0367,2.0,33.68221412,59.7023827,-99999.0,'11111222,11111222,99999999' 
TABS,ioos:station:wmo:42046:1,2013-07-01T15:00:00Z,27.8903,-94.0367,2.0,37.54306753,62.65632291,-99999.0,'11111222,11111222,99999999' 
TABS,ioos:station:wmo:42046:1,2013-07-01T15:30:00Z,27.8903,-94.0367,2.0,43.85537874,54.86122219,-99999.0,'11111222,11111222,99999999' 
TABS,ioos:station:wmo:42046:1,2013-07-01T16:00:00Z,27.8903,-94.0367,2.0,47.10933331,48.03095044,-99999.0,'11111222,11111222,99999999' 
TABS,ioos:station:wmo:42046:1,2013-07-01T16:30:00Z,27.8903,-94.0367,2.0,54.8593737,42.61740724,-99999.0,'11111222,11111222,99999999' 
TABS,ioos:station:wmo:42046:1,2013-07-01T17:00:00Z,27.8903,-94.0367,2.0,59.51599811,40.76492733,-99999.0,'11111222,11111222,99999999' 
TABS,ioos:station:wmo:42046:1,2013-07-01T17:30:00Z,27.8903,-94.0367,2.0,73.52498445,42.34869774,-99999.0,'11111222,11111222,99999999' 
TABS,ioos:station:wmo:42046:1,2013-07-01T18:00:00Z,27.8903,-94.0367,2.0,72.39231913,35.70267357,-99999.0,'11111222,11111222,99999999' 
TABS,ioos:station:wmo:42046:1,2013-07-01T18:30:00Z,27.8903,-94.0367,2.0,82.72351781,32.37069817,-99999.0,'11111222,11111222,99999999' 
TABS,ioos:station:wmo:42046:1,2013-07-01T19:00:00Z,27.8903,-94.0367,2.0,74.75828818,18.79096858,-99999.0,'11111222,11111222,99999999' 
TABS,ioos:station:wmo:42046:1,2013-07-01T19:30:00Z,27.8903,-94.0367,2.0,82.4978975,14.32260102,-99999.0,'11111222,11111222,99999999' 
TABS,ioos:station:wmo:42046:1,2013-07-01T20:00:00Z,27.8903,-94.0367,2.0,87.36645173,5.876206259,-99999.0,'11133222,11111222,99999999' 
TABS,ioos:station:wmo:42046:1,2013-07-01T20:30:00Z,27.8903,-94.0367,2.0,112.1251736,5.257118983,-99999.0,'11133222,11111222,99999999' 
TABS,ioos:station:wmo:42046:1,2013-07-01T21:00:00Z,27.8903,-94.0367,2.0,145.8683947,5.400166664,-99999.0,'11133222,11111222,99999999' 
TABS,ioos:station:wmo:42046:1,2013-07-01T21:30:00Z,27.8903,-94.0367,2.0,120.7812975,3.771272995,-99999.0,'11133222,11111222,99999999' 
TABS,ioos:station:wmo:42046:1,2013-07-01T22:00:00Z,27.8903,-94.0367,2.0,199.6755621,1.752312757,-99999.0,'11133222,11111222,99999999' 
TABS,ioos:station:wmo:42046:1,2013-07-01T22:30:00Z,27.8903,-94.0367,2.0,203.2629206,4.658755199,-99999.0,'11133222,11111222,99999999' 
TABS,ioos:station:wmo:42046:1,2013-07-01T23:00:00Z,27.8903,-94.0367,2.0,188.7459314,7.628708934,-99999.0,'11133222,11111222,99999999' 
TABS,ioos:station:wmo:42046:1,2013-07-01T23:30:00Z,27.8903,-94.0367,2.0,184.709794,6.210974159,-99999.0,'11133222,11111222,99999999' 
TABS,ioos:station:wmo:42046:1,2013-07-02T00:00:00Z,27.8903,-94.0367,2.0,227.9905404,5.827426533,-99999.0,'11133222,11111222,99999999' 
TABS,ioos:station:wmo:42046:1,2013-07-02T00:30:00Z,27.8903,-94.0367,2.0,219.617909,12.13796111,-99999.0,'11111222,11111222,99999999' 
TABS,ioos:station:wmo:42046:1,2013-07-02T01:00:00Z,27.8903,-94.0367,2.0,231.0354701,10.28887263,-99999.0,'11111222,11111222,99999999' 
TABS,ioos:station:wmo:42046:1,2013-07-02T01:30:00Z,27.8903,-94.0367,2.0,226.9746137,7.796948121,-99999.0,'11133222,11111222,99999999' 
TABS,ioos:station:wmo:42046:1,2013-07-02T02:00:00Z,27.8903,-94.0367,2.0,252.0550125,9.607351352,-99999.0,'11133222,11111222,99999999' 
TABS,ioos:station:wmo:42046:1,2013-07-02T02:30:00Z,27.8903,-94.0367,2.0,243.7529999,13.68047514,-99999.0,'11111222,11111222,99999999' 
TABS,ioos:station:wmo:42046:1,2013-07-02T03:00:00Z,27.8903,-94.0367,2.0,261.2707688,17.59377731,-99999.0,'11111222,11111222,99999999' 
TABS,ioos:station:wmo:42046:1,2013-07-02T03:30:00Z,27.8903,-94.0367,2.0,274.205068,24.00460789,-99999.0,'11111222,11111222,99999999' 
TABS,ioos:station:wmo:42046:1,2013-07-02T04:00:00Z,27.8903,-94.0367,2.0,274.5324398,29.99378102,-99999.0,'11111222,11111222,99999999' 
TABS,ioos:station:wmo:42046:1,2013-07-02T04:30:00Z,27.8903,-94.0367,2.0,284.5505038,26.23128285,-99999.0,'11111222,11111222,99999999' 
TABS,ioos:station:wmo:42046:1,2013-07-02T05:00:00Z,27.8903,-94.0367,2.0,276.0391159,37.3572938,-99999.0,'11111222,11111222,99999999' 
TABS,ioos:station:wmo:42046:1,2013-07-02T05:30:00Z,27.8903,-94.0367,2.0,275.9430677,45.20292026,-99999.0,'11111222,11111222,99999999' 
TABS,ioos:station:wmo:42046:1,2013-07-02T06:00:00Z,27.8903,-94.0367,2.0,281.235751,63.28280809,-99999.0,'11111222,11111222,99999999' 
TABS,ioos:station:wmo:42046:1,2013-07-02T06:30:00Z,27.8903,-94.0367,2.0,291.9243687,64.22473667,-99999.0,'11111222,11111222,99999999' 
TABS,ioos:station:wmo:42046:1,2013-07-02T07:00:00Z,27.8903,-94.0367,2.0,296.9508097,65.15602275,-99999.0,'11111222,11111222,99999999' 
TABS,ioos:station:wmo:42046:1,2013-07-02T07:30:00Z,27.8903,-94.0367,2.0,303.988613,63.41418532,-99999.0,'11111222,11111222,99999999' 
TABS,ioos:station:wmo:42046:1,2013-07-02T08:00:00Z,27.8903,-94.0367,2.0,306.3782179,67.54249033,-99999.0,'11111222,11111222,99999999' 
TABS,ioos:station:wmo:42046:1,2013-07-02T08:30:00Z,27.8903,-94.0367,2.0,306.7017309,68.68629703,-99999.0,'11111222,11111222,99999999' 
TABS,ioos:station:wmo:42046:1,2013-07-02T09:00:00Z,27.8903,-94.0367,2.0,313.3038109,69.5037071,-99999.0,'11111222,11111222,99999999' 
TABS,ioos:station:wmo:42046:1,2013-07-02T09:30:00Z,27.8903,-94.0367,2.0,317.4098939,67.77954632,-99999.0,'11111222,11111222,99999999' 
TABS,ioos:station:wmo:42046:1,2013-07-02T10:00:00Z,27.8903,-94.0367,2.0,323.6463905,66.18068374,-99999.0,'11111222,11111222,99999999' 
TABS,ioos:station:wmo:42046:1,2013-07-02T10:30:00Z,27.8903,-94.0367,2.0,334.1865835,63.77367012,-99999.0,'11111222,11111222,99999999' 
TABS,ioos:station:wmo:42046:1,2013-07-02T11:00:00Z,27.8903,-94.0367,2.0,336.4299305,63.34486956,-99999.0,'11111222,11111222,99999999' 
TABS,ioos:station:wmo:42046:1,2013-07-02T11:30:00Z,27.8903,-94.0367,2.0,348.6549083,63.49064971,-99999.0,'11111222,11111222,99999999' 
TABS,ioos:station:wmo:42046:1,2013-07-02T12:00:00Z,27.8903,-94.0367,2.0,356.4872091,67.72726556,-99999.0,'11111222,11111222,99999999' 
TABS,ioos:station:wmo:42046:1,2013-07-02T12:30:00Z,27.8903,-94.0367,2.0,3.150996845,67.86258542,-99999.0,'11111222,11111222,99999999' 
TABS,ioos:station:wmo:42046:1,2013-07-02T13:00:00Z,27.8903,-94.0367,2.0,7.314344153,64.25282328,-99999.0,'11111222,11111222,99999999' 
TABS,ioos:station:wmo:42046:1,2013-07-02T13:30:00Z,27.8903,-94.0367,2.0,11.54696175,68.79224448,-99999.0,'11111222,11111222,99999999' 
TABS,ioos:station:wmo:42046:1,2013-07-02T14:00:00Z,27.8903,-94.0367,2.0,15.81488871,65.64478426,-99999.0,'11111222,11111222,99999999' 
TABS,ioos:station:wmo:42046:1,2013-07-02T14:30:00Z,27.8903,-94.0367,2.0,18.79133917,63.57882116,-99999.0,'11111222,11111222,99999999' 
TABS,ioos:station:wmo:42046:1,2013-07-02T15:00:00Z,27.8903,-94.0367,2.0,19.56199218,61.58461902,-99999.0,'11111222,11111222,99999999' 
TABS,ioos:station:wmo:42046:1,2013-07-02T15:30:00Z,27.8903,-94.0367,2.0,23.7048026,57.53415768,-99999.0,'11111222,11111222,99999999' 
TABS,ioos:station:wmo:42046:1,2013-07-02T16:00:00Z,27.8903,-94.0367,2.0,23.58690319,52.33206665,-99999.0,'11111222,11111222,99999999' 
TABS,ioos:station:wmo:42046:1,2013-07-02T16:30:00Z,27.8903,-94.0367,2.0,28.66808383,43.75353929,-99999.0,'11111222,11111222,99999999' 
TABS,ioos:station:wmo:42046:1,2013-07-02T17:00:00Z,27.8903,-94.0367,2.0,35.00908517,41.57192562,-99999.0,'11111222,11111222,99999999' 
TABS,ioos:station:wmo:42046:1,2013-07-02T17:30:00Z,27.8903,-94.0367,2.0,42.76798636,33.22387244,-99999.0,'11111222,11111222,99999999' 
TABS,ioos:station:wmo:42046:1,2013-07-02T18:00:00Z,27.8903,-94.0367,2.0,42.01069942,29.15125555,-99999.0,'11111222,11111222,99999999' 
TABS,ioos:station:wmo:42046:1,2013-07-02T18:30:00Z,27.8903,-94.0367,2.0,59.9206004,16.779705,-99999.0,'11111222,11111222,99999999' 
TABS,ioos:station:wmo:42046:1,2013-07-02T19:00:00Z,27.8903,-94.0367,2.0,55.39509564,20.49601181,-99999.0,'11111222,11111222,99999999' 
TABS,ioos:station:wmo:42046:1,2013-07-02T19:30:00Z,27.8903,-94.0367,2.0,63.26346761,14.93700104,-99999.0,'11111222,11111222,99999999' 
TABS,ioos:station:wmo:42046:1,2013-07-02T20:00:00Z,27.8903,-94.0367,2.0,69.1896943,15.03057218,-99999.0,'11111222,11111222,99999999' 
TABS,ioos:station:wmo:42046:1,2013-07-02T20:30:00Z,27.8903,-94.0367,2.0,89.88494866,9.96002008,-99999.0,'11133222,11111222,99999999' 
TABS,ioos:station:wmo:42046:1,2013-07-02T21:00:00Z,27.8903,-94.0367,2.0,90.95483902,8.401166586,-99999.0,'11133222,11111222,99999999' 
TABS,ioos:station:wmo:42046:1,2013-07-02T21:30:00Z,27.8903,-94.0367,2.0,123.6235783,9.571358315,-99999.0,'11133222,11111222,99999999' 
TABS,ioos:station:wmo:42046:1,2013-07-02T22:00:00Z,27.8903,-94.0367,2.0,146.40948,7.971053883,-99999.0,'11133222,11111222,99999999' 
TABS,ioos:station:wmo:42046:1,2013-07-02T22:30:00Z,27.8903,-94.0367,2.0,166.3106207,8.40886437,-99999.0,'11133222,11111222,99999999' 
TABS,ioos:station:wmo:42046:1,2013-07-02T23:00:00Z,27.8903,-94.0367,2.0,162.145714,12.16590728,-99999.0,'11111222,11111222,99999999' 
TABS,ioos:station:wmo:42046:1,2013-07-02T23:30:00Z,27.8903,-94.0367,2.0,162.1307483,12.80784916,-99999.0,'11111222,11111222,99999999' 
TABS,ioos:station:wmo:42046:1,2013-07-03T00:00:00Z,27.8903,-94.0367,2.0,170.6363602,13.3377097,-99999.0,'11111222,11111222,99999999' 
TABS,ioos:station:wmo:42046:1,2013-07-03T00:30:00Z,27.8903,-94.0367,2.0,174.5654522,13.62122241,-99999.0,'11111222,11111222,99999999' 
TABS,ioos:station:wmo:42046:1,2013-07-03T01:00:00Z,27.8903,-94.0367,2.0,202.7294685,10.43001918,-99999.0,'11111222,11111222,99999999' 
TABS,ioos:station:wmo:42046:1,2013-07-03T01:30:00Z,27.8903,-94.0367,2.0,218.3368093,11.09163649,-99999.0,'11111222,11111222,99999999' 
TABS,ioos:station:wmo:42046:1,2013-07-03T02:00:00Z,27.8903,-94.0367,2.0,230.5186848,12.20467124,-99999.0,'11111222,11111222,99999999' 
TABS,ioos:station:wmo:42046:1,2013-07-03T02:30:00Z,27.8903,-94.0367,2.0,252.8678397,10.15037438,-99999.0,'11111222,11111222,99999999' 
TABS,ioos:station:wmo:42046:1,2013-07-03T03:00:00Z,27.8903,-94.0367,2.0,264.9744919,18.38064743,-99999.0,'11111222,11111222,99999999' 
TABS,ioos:station:wmo:42046:1,2013-07-03T03:30:00Z,27.8903,-94.0367,2.0,274.07877,22.49696868,-99999.0,'11111222,11111222,99999999' 
TABS,ioos:station:wmo:42046:1,2013-07-03T04:00:00Z,27.8903,-94.0367,2.0,280.1114962,26.71490408,-99999.0,'11111222,11111222,99999999' 
TABS,ioos:station:wmo:42046:1,2013-07-03T04:30:00Z,27.8903,-94.0367,2.0,284.2515107,32.33507693,-99999.0,'11111222,11111222,99999999' 
TABS,ioos:station:wmo:42046:1,2013-07-03T05:00:00Z,27.8903,-94.0367,2.0,293.220007,39.31446172,-99999.0,'11111222,11111222,99999999' 
TABS,ioos:station:wmo:42046:1,2013-07-03T05:30:00Z,27.8903,-94.0367,2.0,295.5991877,41.637034,-99999.0,'11111222,11111222,99999999' 
TABS,ioos:station:wmo:42046:1,2013-07-03T06:00:00Z,27.8903,-94.0367,2.0,301.8826314,41.93679292,-99999.0,'11111222,11111222,99999999' 
TABS,ioos:station:wmo:42046:1,2013-07-03T06:30:00Z,27.8903,-94.0367,2.0,298.41043,41.53189738,-99999.0,'11111222,11111222,99999999' 
TABS,ioos:station:wmo:42046:1,2013-07-03T07:00:00Z,27.8903,-94.0367,2.0,302.9834518,43.60830196,-99999.0,'11111222,11111222,99999999' 
TABS,ioos:station:wmo:42046:1,2013-07-03T07:30:00Z,27.8903,-94.0367,2.0,303.3598054,49.02799302,-99999.0,'11111222,11111222,99999999' 
TABS,ioos:station:wmo:42046:1,2013-07-03T08:00:00Z,27.8903,-94.0367,2.0,308.7090181,49.42745189,-99999.0,'11111222,11111222,99999999' 
TABS,ioos:station:wmo:42046:1,2013-07-03T08:30:00Z,27.8903,-94.0367,2.0,314.401791,46.7069513,-99999.0,'11111222,11111222,99999999' 
TABS,ioos:station:wmo:42046:1,2013-07-03T09:00:00Z,27.8903,-94.0367,2.0,316.5946314,46.00096195,-99999.0,'11111222,11111222,99999999' 
TABS,ioos:station:wmo:42046:1,2013-07-03T09:30:00Z,27.8903,-94.0367,2.0,321.5390681,49.11694311,-99999.0,'11111222,11111222,99999999' 
TABS,ioos:station:wmo:42046:1,2013-07-03T10:00:00Z,27.8903,-94.0367,2.0,326.6935577,45.60015022,-99999.0,'11111222,11111222,99999999' 
TABS,ioos:station:wmo:42046:1,2013-07-03T10:30:00Z,27.8903,-94.0367,2.0,333.7981703,45.1828961,-99999.0,'11111222,11111222,99999999' 
TABS,ioos:station:wmo:42046:1,2013-07-03T11:00:00Z,27.8903,-94.0367,2.0,334.987729,47.70389712,-99999.0,'11111222,11111222,99999999' 
TABS,ioos:station:wmo:42046:1,2013-07-03T11:30:00Z,27.8903,-94.0367,2.0,339.6380575,46.35675247,-99999.0,'11111222,11111222,99999999' 
TABS,ioos:station:wmo:42046:1,2013-07-03T12:00:00Z,27.8903,-94.0367,2.0,344.8943884,46.12376069,-99999.0,'11111222,11111222,99999999' 
TABS,ioos:station:wmo:42046:1,2013-07-03T12:30:00Z,27.8903,-94.0367,2.0,347.4592507,45.91550174,-99999.0,'11111222,11111222,99999999' 
TABS,ioos:station:wmo:42046:1,2013-07-03T13:00:00Z,27.8903,-94.0367,2.0,356.8357391,43.47629354,-99999.0,'11111222,11111222,99999999' 
TABS,ioos:station:wmo:42046:1,2013-07-03T13:30:00Z,27.8903,-94.0367,2.0,359.6623403,44.09076661,-99999.0,'11111222,11144222,99999999' 
TABS,ioos:station:wmo:42046:1,2013-07-03T14:00:00Z,27.8903,-94.0367,2.0,3.810551766,40.93047764,-99999.0,'11111222,11111222,99999999' 
TABS,ioos:station:wmo:42046:1,2013-07-03T14:30:00Z,27.8903,-94.0367,2.0,13.96920278,43.41390676,-99999.0,'11111222,11111222,99999999' 
TABS,ioos:station:wmo:42046:1,2013-07-03T15:00:00Z,27.8903,-94.0367,2.0,16.7665082,38.44429997,-99999.0,'11111222,11111222,99999999' 
TABS,ioos:station:wmo:42046:1,2013-07-03T15:30:00Z,27.8903,-94.0367,2.0,19.64888636,37.76923219,-99999.0,'11111222,11111222,99999999' 
TABS,ioos:station:wmo:42046:1,2013-07-03T16:00:00Z,27.8903,-94.0367,2.0,25.0309381,29.89800328,-99999.0,'11111222,11111222,99999999' 
TABS,ioos:station:wmo:42046:1,2013-07-03T16:30:00Z,27.8903,-94.0367,2.0,26.46388106,25.28996837,-99999.0,'11111222,11111222,99999999' 
TABS,ioos:station:wmo:42046:1,2013-07-03T17:00:00Z,27.8903,-94.0367,2.0,39.54671629,23.51165243,-99999.0,'11111222,11111222,99999999' 
TABS,ioos:station:wmo:42046:1,2013-07-03T17:30:00Z,27.8903,-94.0367,2.0,53.73540175,17.04095068,-99999.0,'11111222,11111222,99999999' 
TABS,ioos:station:wmo:42046:1,2013-07-03T18:00:00Z,27.8903,-94.0367,2.0,55.80333504,15.99540559,-99999.0,'11111222,11111222,99999999' 
TABS,ioos:station:wmo:42046:1,2013-07-03T18:30:00Z,27.8903,-94.0367,2.0,73.13100442,18.74665837,-99999.0,'11111222,11111222,99999999' 
TABS,ioos:station:wmo:42046:1,2013-07-03T19:00:00Z,27.8903,-94.0367,2.0,81.65771153,19.09201404,-99999.0,'11111222,11111222,99999999' 
TABS,ioos:station:wmo:42046:1,2013-07-03T19:30:00Z,27.8903,-94.0367,2.0,91.72862612,12.26558193,-99999.0,'11111222,11111222,99999999' 
TABS,ioos:station:wmo:42046:1,2013-07-03T20:00:00Z,27.8903,-94.0367,2.0,113.5036581,13.31466109,-99999.0,'11111222,11111222,99999999' 
TABS,ioos:station:wmo:42046:1,2013-07-03T20:30:00Z,27.8903,-94.0367,2.0,127.7659951,10.61329826,-99999.0,'11111222,11111222,99999999' 
TABS,ioos:station:wmo:42046:1,2013-07-03T21:00:00Z,27.8903,-94.0367,2.0,172.84877,8.193735412,-99999.0,'11133222,11111222,99999999' 
TABS,ioos:station:wmo:42046:1,2013-07-03T21:30:00Z,27.8903,-94.0367,2.0,195.3315279,5.899974576,-99999.0,'11133222,11111222,99999999' 
TABS,ioos:station:wmo:42046:1,2013-07-03T22:00:00Z,27.8903,-94.0367,2.0,206.1946037,6.229815407,-99999.0,'11133222,11111222,99999999' 
TABS,ioos:station:wmo:42046:1,2013-07-03T22:30:00Z,27.8903,-94.0367,2.0,230.1720076,9.961269999,-99999.0,'11133222,11111222,99999999' 
TABS,ioos:station:wmo:42046:1,2013-07-03T23:00:00Z,27.8903,-94.0367,2.0,198.4097624,14.5338295,-99999.0,'11111222,11111222,99999999' 
TABS,ioos:station:wmo:42046:1,2013-07-03T23:30:00Z,27.8903,-94.0367,2.0,218.7175493,10.79161248,-99999.0,'11111222,11111222,99999999' 
TABS,ioos:station:wmo:42046:1,2013-07-04T00:00:00Z,27.8903,-94.0367,2.0,229.791043,10.9205357,-99999.0,'11111222,11111222,99999999' 
TABS,ioos:station:wmo:42046:1,2013-07-04T00:30:00Z,27.8903,-94.0367,2.0,246.1283957,19.12609997,-99999.0,'11111222,11111222,99999999' 
TABS,ioos:station:wmo:42046:1,2013-07-04T01:00:00Z,27.8903,-94.0367,2.0,258.3240098,19.66692655,-99999.0,'11111222,11111222,99999999' 
TABS,ioos:station:wmo:42046:1,2013-07-04T01:30:00Z,27.8903,-94.0367,2.0,267.0816021,29.85871397,-99999.0,'11111222,11111222,99999999' 
TABS,ioos:station:wmo:42046:1,2013-07-04T02:00:00Z,27.8903,-94.0367,2.0,270.9519566,28.90398588,-99999.0,'11111222,11111222,99999999' 
TABS,ioos:station:wmo:42046:1,2013-07-04T02:30:00Z,27.8903,-94.0367,2.0,275.5579191,33.14580215,-99999.0,'11111222,11111222,99999999' 
TABS,ioos:station:wmo:42046:1,2013-07-04T03:00:00Z,27.8903,-94.0367,2.0,279.2087671,34.49453435,-99999.0,'11111222,11111222,99999999' 
TABS,ioos:station:wmo:42046:1,2013-07-04T03:30:00Z,27.8903,-94.0367,2.0,285.2466266,39.62460473,-99999.0,'11111222,11111222,99999999' 
TABS,ioos:station:wmo:42046:1,2013-07-04T04:00:00Z,27.8903,-94.0367,2.0,292.1396988,42.19071462,-99999.0,'11111222,11111222,99999999' 
TABS,ioos:station:wmo:42046:1,2013-07-04T04:30:00Z,27.8903,-94.0367,2.0,298.4982772,37.78868878,-99999.0,'11111222,11111222,99999999' 
TABS,ioos:station:wmo:42046:1,2013-07-04T05:00:00Z,27.8903,-94.0367,2.0,296.6329394,41.73847386,-99999.0,'11111222,11111222,99999999' 
TABS,ioos:station:wmo:42046:1,2013-07-04T05:30:00Z,27.8903,-94.0367,2.0,296.8094794,41.99373763,-99999.0,'11111222,11111222,99999999' 
TABS,ioos:station:wmo:42046:1,2013-07-04T06:00:00Z,27.8903,-94.0367,2.0,300.9236624,51.02255678,-99999.0,'11111222,11111222,99999999' 
TABS,ioos:station:wmo:42046:1,2013-07-04T06:30:00Z,27.8903,-94.0367,2.0,307.6508879,48.58850996,-99999.0,'11111222,11111222,99999999' 
TABS,ioos:station:wmo:42046:1,2013-07-04T07:00:00Z,27.8903,-94.0367,2.0,312.3286729,50.06100478,-99999.0,'11111222,11111222,99999999' 
TABS,ioos:station:wmo:42046:1,2013-07-04T07:30:00Z,27.8903,-94.0367,2.0,315.9024684,48.05386249,-99999.0,'11111222,11111222,99999999' 
TABS,ioos:station:wmo:42046:1,2013-07-04T08:00:00Z,27.8903,-94.0367,2.0,318.6445109,45.05602401,-99999.0,'11111222,11111222,99999999' 
TABS,ioos:station:wmo:42046:1,2013-07-04T08:30:00Z,27.8903,-94.0367,2.0,331.1129587,46.90650808,-99999.0,'11111222,11111222,99999999' 
TABS,ioos:station:wmo:42046:1,2013-07-04T09:00:00Z,27.8903,-94.0367,2.0,329.9022219,48.69572158,-99999.0,'11111222,11111222,99999999' 
TABS,ioos:station:wmo:42046:1,2013-07-04T09:30:00Z,27.8903,-94.0367,2.0,333.2519915,46.1482069,-99999.0,'11111222,11111222,99999999' 
TABS,ioos:station:wmo:42046:1,2013-07-04T10:00:00Z,27.8903,-94.0367,2.0,332.5784763,46.35887186,-99999.0,'11111222,11111222,99999999' 
TABS,ioos:station:wmo:42046:1,2013-07-04T10:30:00Z,27.8903,-94.0367,2.0,334.4688342,48.83919942,-99999.0,'11111222,11111222,99999999' 
TABS,ioos:station:wmo:42046:1,2013-07-04T11:00:00Z,27.8903,-94.0367,2.0,336.2313561,45.37912516,-99999.0,'11111222,11111222,99999999' 
TABS,ioos:station:wmo:42046:1,2013-07-04T11:30:00Z,27.8903,-94.0367,2.0,336.7214517,45.01451544,-99999.0,'11111222,11111222,99999999' 
TABS,ioos:station:wmo:42046:1,2013-07-04T12:00:00Z,27.8903,-94.0367,2.0,332.9845908,39.80324107,-99999.0,'11111222,11111222,99999999' 
TABS,ioos:station:wmo:42046:1,2013-07-04T12:30:00Z,27.8903,-94.0367,2.0,331.8136844,42.82890846,-99999.0,'11111222,11111222,99999999' 
TABS,ioos:station:wmo:42046:1,2013-07-04T13:00:00Z,27.8903,-94.0367,2.0,338.4319331,37.43091904,-99999.0,'11111222,11111222,99999999' 
TABS,ioos:station:wmo:42046:1,2013-07-04T13:30:00Z,27.8903,-94.0367,2.0,335.5160696,35.34871143,-99999.0,'11111222,11111222,99999999' 
TABS,ioos:station:wmo:42046:1,2013-07-04T14:00:00Z,27.8903,-94.0367,2.0,344.5172306,29.10627767,-99999.0,'11111222,11111222,99999999' 
TABS,ioos:station:wmo:42046:1,2013-07-04T14:30:00Z,27.8903,-94.0367,2.0,27.59265506,21.69782017,-99999.0,'11111222,11111222,99999999' 
TABS,ioos:station:wmo:42046:1,2013-07-04T15:00:00Z,27.8903,-94.0367,2.0,41.16434053,19.87178905,-99999.0,'11111222,11111222,99999999' 
TABS,ioos:station:wmo:42046:1,2013-07-04T15:30:00Z,27.8903,-94.0367,2.0,60.66705082,20.18841499,-99999.0,'11111222,11111222,99999999' 
TABS,ioos:station:wmo:42046:1,2013-07-04T16:00:00Z,27.8903,-94.0367,2.0,68.60216531,18.72041132,-99999.0,'11111222,11111222,99999999' 